Time,TemperatureF,DewpointF,PressureIn,WindDirection,WindDirectionDegrees,WindSpeedMPH,WindSpeedGustMPH,Humidity,HourlyPrecipIn,Conditions,Clouds,dailyrainin,SoftwareType,DateUTC
2013-01-04 00:00:00,38.0,32.1,30.21,ESE,123,0.0,0.0,79,0.00,,,0.00,Wunderground v.1.13,2013-01-04 08:00:00,
2013-01-04 00:10:00,37.9,32.0,30.21,ESE,123,0.0,0.0,79,0.00,,,0.00,Wunderground v.1.13,2013-01-04 08:10:00,
2013-01-04 00:20:00,37.8,31.9,30.21,ESE,123,0.0,0.0,79,0.00,,,0.00,Wunderground v.1.13,2013-01-04 08:20:00,
2013-01-04 00:25:00,37.8,31.9,30.21,ESE,123,0.0,0.0,79,0.00,,,0.00,Wunderground v.1.13,2013-01-04 08:25:00,
2013-01-04 00:30:00,37.7,31.8,30.21,ESE,123,0.0,0.0,79,0.00,,,0.00,Wunderground v.1.13,2013-01-04 08:30:00,
2013-01-04 00:40:00,37.7,32.1,30.21,ESE,123,0.0,0.0,80,0.00,,,0.00,Wunderground v.1.13,2013-01-04 08:40:00,
2013-01-04 00:50:00,37.5,31.6,30.21,ESE,123,0.0,0.0,79,0.00,,,0.00,Wunderground v.1.13,2013-01-04 08:50:00,
2013-01-04 01:00:00,37.5,31.9,30.20,ESE,123,0.0,0.0,80,0.00,,,0.00,Wunderground v.1.13,2013-01-04 09:00:00,
2013-01-04 01:10:00,37.4,31.8,30.21,ESE,123,0.0,0.0,80,0.00,,,0.00,Wunderground v.1.13,2013-01-04 09:10:00,
2013-01-04 01:15:00,37.3,31.7,30.21,ESE,123,0.0,0.0,80,0.00,,,0.00,Wunderground v.1.13,2013-01-04 09:15:00,
2013-01-04 01:25:00,37.2,31.6,30.21,ESE,123,0.0,0.0,80,0.00,,,0.00,Wunderground v.1.13,2013-01-04 09:25:00,
2013-01-04 01:35:00,37.1,31.5,30.21,ESE,123,0.0,0.0,80,0.00,,,0.00,Wunderground v.1.13,2013-01-04 09:35:00,
2013-01-04 01:40:00,37.1,31.5,30.21,ESE,123,0.0,0.0,80,0.00,,,0.00,Wunderground v.1.13,2013-01-04 09:40:00,
2013-01-04 01:50:00,37.1,31.5,30.21,ESE,123,0.0,0.0,80,0.00,,,0.00,Wunderground v.1.13,2013-01-04 09:50:00,
2013-01-04 02:00:00,37.0,31.4,30.21,ESE,123,0.0,0.0,80,0.00,,,0.00,Wunderground v.1.13,2013-01-04 10:00:00,
2013-01-04 02:10:00,37.0,31.4,30.21,ESE,123,0.0,0.0,80,0.00,,,0.00,Wunderground v.1.13,2013-01-04 10:10:00,
2013-01-04 02:15:00,36.9,31.3,30.21,ESE,123,0.0,0.0,80,0.00,,,0.00,Wunderground v.1.13,2013-01-04 10:15:00,
2013-01-04 02:25:00,36.8,31.2,30.21,ESE,123,0.0,0.0,80,0.00,,,0.00,Wunderground v.1.13,2013-01-04 10:25:00,
2013-01-04 02:30:00,36.7,31.1,30.21,ESE,123,0.0,0.0,80,0.00,,,0.00,Wunderground v.1.13,2013-01-04 10:30:00,
2013-01-04 02:40:00,36.6,31.0,30.21,ESE,123,0.0,0.0,80,0.00,,,0.00,Wunderground v.1.13,2013-01-04 10:40:00,
2013-01-04 02:50:00,36.5,30.9,30.21,ESE,123,0.0,0.0,80,0.00,,,0.00,Wunderground v.1.13,2013-01-04 10:50:00,
2013-01-04 03:00:00,36.4,30.8,30.21,ESE,123,0.0,0.0,80,0.00,,,0.00,Wunderground v.1.13,2013-01-04 11:00:00,
2013-01-04 03:05:00,36.3,31.0,30.21,ESE,123,0.0,0.0,81,0.00,,,0.00,Wunderground v.1.13,2013-01-04 11:05:00,
2013-01-04 03:15:00,36.2,30.9,30.21,ESE,123,0.0,0.0,81,0.00,,,0.00,Wunderground v.1.13,2013-01-04 11:15:00,
2013-01-04 03:20:00,36.2,30.9,30.21,ESE,123,0.0,0.0,81,0.00,,,0.00,Wunderground v.1.13,2013-01-04 11:20:00,
2013-01-04 03:30:00,36.0,30.4,30.21,ESE,123,0.0,0.0,80,0.00,,,0.00,Wunderground v.1.13,2013-01-04 11:30:00,
2013-01-04 03:40:00,35.9,30.6,30.21,ESE,123,0.0,0.0,81,0.00,,,0.00,Wunderground v.1.13,2013-01-04 11:40:00,
2013-01-04 03:50:00,35.9,30.6,30.21,ESE,123,0.0,0.0,81,0.00,,,0.00,Wunderground v.1.13,2013-01-04 11:50:00,
2013-01-04 04:00:00,35.7,30.4,30.21,ESE,123,0.0,0.0,81,0.00,,,0.00,Wunderground v.1.13,2013-01-04 12:00:00,
2013-01-04 04:10:00,35.6,30.3,30.21,ESE,123,0.0,0.0,81,0.00,,,0.00,Wunderground v.1.13,2013-01-04 12:10:00,
2013-01-04 04:15:00,35.6,30.3,30.20,ESE,123,0.0,0.0,81,0.00,,,0.00,Wunderground v.1.13,2013-01-04 12:15:00,
2013-01-04 04:20:00,35.6,30.3,30.20,ESE,123,0.0,0.0,81,0.00,,,0.00,Wunderground v.1.13,2013-01-04 12:20:00,
2013-01-04 04:30:00,35.5,30.2,30.20,ESE,123,0.0,0.0,81,0.00,,,0.00,Wunderground v.1.13,2013-01-04 12:30:00,
2013-01-04 04:40:00,35.4,30.1,30.20,ESE,123,0.0,0.0,81,0.00,,,0.00,Wunderground v.1.13,2013-01-04 12:40:00,
2013-01-04 04:50:00,35.3,30.1,30.19,ESE,123,0.0,0.0,81,0.00,,,0.00,Wunderground v.1.13,2013-01-04 12:50:00,
2013-01-04 04:55:00,35.3,30.1,30.19,ESE,123,0.0,0.0,81,0.00,,,0.00,Wunderground v.1.13,2013-01-04 12:55:00,
2013-01-04 05:05:00,35.2,30.0,30.19,ESE,123,0.0,0.0,81,0.00,,,0.00,Wunderground v.1.13,2013-01-04 13:05:00,
2013-01-04 05:10:00,35.2,30.0,30.20,ESE,123,0.0,0.0,81,0.00,,,0.00,Wunderground v.1.13,2013-01-04 13:10:00,
2013-01-04 05:20:00,35.1,29.9,30.20,ESE,123,0.0,0.0,81,0.00,,,0.00,Wunderground v.1.13,2013-01-04 13:20:00,
2013-01-04 05:30:00,35.0,29.8,30.20,ESE,123,0.0,0.0,81,0.00,,,0.00,Wunderground v.1.13,2013-01-04 13:30:00,
2013-01-04 05:40:00,35.0,29.8,30.21,ESE,123,0.0,0.0,81,0.00,,,0.00,Wunderground v.1.13,2013-01-04 13:40:00,
2013-01-04 05:50:00,34.9,29.7,30.21,ESE,123,0.0,0.0,81,0.00,,,0.00,Wunderground v.1.13,2013-01-04 13:50:00,
2013-01-04 05:55:00,34.9,29.7,30.21,ESE,123,0.0,0.0,81,0.00,,,0.00,Wunderground v.1.13,2013-01-04 13:55:00,
2013-01-04 06:00:00,34.9,29.7,30.21,ESE,123,0.0,0.0,81,0.00,,,0.00,Wunderground v.1.13,2013-01-04 14:00:00,
2013-01-04 06:10:00,34.9,30.0,30.22,ESE,123,0.0,0.0,82,0.00,,,0.00,Wunderground v.1.13,2013-01-04 14:10:00,
2013-01-04 06:20:00,34.9,30.0,30.22,ESE,123,0.0,0.0,82,0.00,,,0.00,Wunderground v.1.13,2013-01-04 14:20:00,
2013-01-04 06:30:00,34.9,30.0,30.22,ESE,123,0.0,0.0,82,0.00,,,0.00,Wunderground v.1.13,2013-01-04 14:30:00,
2013-01-04 06:35:00,34.9,30.0,30.22,ESE,123,0.0,0.0,82,0.00,,,0.00,Wunderground v.1.13,2013-01-04 14:35:00,
2013-01-04 06:45:00,35.0,30.1,30.22,ESE,123,0.0,0.0,82,0.00,,,0.00,Wunderground v.1.13,2013-01-04 14:45:00,
2013-01-04 06:50:00,35.0,30.1,30.22,ESE,123,0.0,0.0,82,0.00,,,0.00,Wunderground v.1.13,2013-01-04 14:50:00,
2013-01-04 07:00:00,35.0,30.1,30.22,ESE,123,0.0,0.0,82,0.00,,,0.00,Wunderground v.1.13,2013-01-04 15:00:00,
2013-01-04 07:10:00,34.9,30.0,30.23,ESE,123,0.0,0.0,82,0.00,,,0.00,Wunderground v.1.13,2013-01-04 15:10:00,
2013-01-04 07:20:00,34.9,30.0,30.22,ESE,123,0.0,0.0,82,0.00,,,0.00,Wunderground v.1.13,2013-01-04 15:20:00,
2013-01-04 07:25:00,34.8,29.9,30.22,ESE,123,0.0,0.0,82,0.00,,,0.00,Wunderground v.1.13,2013-01-04 15:25:00,
2013-01-04 07:35:00,34.8,29.9,30.22,ESE,123,0.0,0.0,82,0.00,,,0.00,Wunderground v.1.13,2013-01-04 15:35:00,
2013-01-04 07:45:00,34.7,30.1,30.22,ESE,123,0.0,0.0,83,0.00,,,0.00,Wunderground v.1.13,2013-01-04 15:45:00,
2013-01-04 07:50:00,34.6,30.0,30.22,ESE,123,0.0,0.0,83,0.00,,,0.00,Wunderground v.1.13,2013-01-04 15:50:00,
2013-01-04 08:00:00,34.5,29.9,30.22,ESE,123,0.0,0.0,83,0.00,,,0.00,Wunderground v.1.13,2013-01-04 16:00:00,
2013-01-04 08:10:00,34.5,29.9,30.23,ESE,123,0.0,0.0,83,0.00,,,0.00,Wunderground v.1.13,2013-01-04 16:10:00,
2013-01-04 08:15:00,34.5,29.9,30.23,ESE,123,0.0,0.0,83,0.00,,,0.00,Wunderground v.1.13,2013-01-04 16:15:00,
2013-01-04 08:25:00,34.7,30.1,30.23,ESE,123,0.0,0.0,83,0.00,,,0.00,Wunderground v.1.13,2013-01-04 16:25:00,
2013-01-04 08:30:00,34.7,30.1,30.23,ESE,123,0.0,0.0,83,0.00,,,0.00,Wunderground v.1.13,2013-01-04 16:30:00,
2013-01-04 08:40:00,34.8,30.5,30.23,ESE,123,0.0,0.0,84,0.00,,,0.00,Wunderground v.1.13,2013-01-04 16:40:00,
2013-01-04 08:50:00,35.0,30.7,30.23,ESE,123,0.0,0.0,84,0.00,,,0.00,Wunderground v.1.13,2013-01-04 16:50:00,
2013-01-04 09:00:00,35.2,30.9,30.23,ESE,123,0.0,0.0,84,0.00,,,0.00,Wunderground v.1.13,2013-01-04 17:00:00,
2013-01-04 09:05:00,35.4,31.0,30.23,ESE,123,0.0,0.0,84,0.00,,,0.00,Wunderground v.1.13,2013-01-04 17:05:00,
2013-01-04 09:15:00,35.8,31.7,30.23,ESE,123,0.0,0.0,85,0.00,,,0.00,Wunderground v.1.13,2013-01-04 17:15:00,
2013-01-04 09:20:00,36.1,32.0,30.24,ESE,123,0.0,0.0,85,0.00,,,0.00,Wunderground v.1.13,2013-01-04 17:20:00,
2013-01-04 09:25:00,36.4,32.3,30.24,ESE,123,0.0,0.0,85,0.00,,,0.00,Wunderground v.1.13,2013-01-04 17:25:00,
2013-01-04 09:35:00,37.3,33.5,30.24,ESE,123,0.0,0.0,86,0.00,,,0.00,Wunderground v.1.13,2013-01-04 17:35:00,
2013-01-04 09:40:00,37.7,33.9,30.24,ESE,123,0.0,0.0,86,0.00,,,0.00,Wunderground v.1.13,2013-01-04 17:40:00,
2013-01-04 09:50:00,38.4,34.6,30.24,ESE,123,0.0,0.0,86,0.00,,,0.00,Wunderground v.1.13,2013-01-04 17:50:00,
2013-01-04 10:00:00,39.3,35.8,30.24,ESE,123,0.0,0.0,87,0.00,,,0.00,Wunderground v.1.13,2013-01-04 18:00:00,
2013-01-04 10:05:00,39.6,36.0,30.24,ESE,123,0.0,0.0,87,0.00,,,0.00,Wunderground v.1.13,2013-01-04 18:05:00,
2013-01-04 10:15:00,40.3,38.2,30.24,ESE,123,0.0,0.0,92,0.00,,,0.00,Wunderground v.1.13,2013-01-04 18:15:00,
2013-01-04 10:20:00,40.7,37.1,30.23,ESE,123,0.0,0.0,87,0.00,,,0.00,Wunderground v.1.13,2013-01-04 18:20:00,
2013-01-04 10:25:00,41.3,38.0,30.24,ESE,123,0.0,0.0,88,0.00,,,0.00,Wunderground v.1.13,2013-01-04 18:25:00,
2013-01-04 10:35:00,43.1,39.5,30.23,ESE,123,0.0,0.0,87,0.00,,,0.00,Wunderground v.1.13,2013-01-04 18:35:00,
2013-01-04 10:40:00,43.2,39.6,30.23,ESE,123,0.0,0.0,87,0.00,,,0.00,Wunderground v.1.13,2013-01-04 18:40:00,
2013-01-04 10:50:00,43.5,39.9,30.23,ESE,123,0.0,0.0,87,0.00,,,0.00,Wunderground v.1.13,2013-01-04 18:50:00,
2013-01-04 11:00:00,43.8,40.2,30.22,ESE,123,0.0,0.0,87,0.00,,,0.00,Wunderground v.1.13,2013-01-04 19:00:00,
2013-01-04 11:10:00,44.2,40.6,30.22,ESE,123,0.0,0.0,87,0.00,,,0.00,Wunderground v.1.13,2013-01-04 19:10:00,
2013-01-04 11:15:00,44.4,40.8,30.22,ENE,66,0.0,0.0,87,0.00,,,0.00,Wunderground v.1.13,2013-01-04 19:15:00,
2013-01-04 11:25:00,44.9,41.3,30.21,ENE,69,0.0,0.0,87,0.00,,,0.00,Wunderground v.1.13,2013-01-04 19:25:00,
2013-01-04 11:30:00,45.1,41.2,30.21,ENE,69,0.0,0.0,86,0.00,,,0.00,Wunderground v.1.13,2013-01-04 19:30:00,
2013-01-04 11:40:00,45.7,41.8,30.20,ENE,69,0.0,0.0,86,0.00,,,0.00,Wunderground v.1.13,2013-01-04 19:40:00,
2013-01-04 11:50:00,46.3,42.0,30.20,ENE,70,0.0,0.0,85,0.00,,,0.00,Wunderground v.1.13,2013-01-04 19:50:00,
2013-01-04 12:00:00,46.6,41.7,30.19,ENE,70,0.0,0.0,83,0.00,,,0.00,Wunderground v.1.13,2013-01-04 20:00:00,
2013-01-04 12:05:00,46.9,41.4,30.19,ENE,72,0.0,0.0,81,0.00,,,0.00,Wunderground v.1.13,2013-01-04 20:05:00,
2013-01-04 12:15:00,47.5,41.0,30.18,NE,55,0.0,0.0,78,0.00,,,0.00,Wunderground v.1.13,2013-01-04 20:15:00,
2013-01-04 12:25:00,48.2,40.6,30.18,NE,55,0.0,0.0,75,0.00,,,0.00,Wunderground v.1.13,2013-01-04 20:25:00,
2013-01-04 12:30:00,48.6,40.7,30.17,NE,55,0.0,0.0,74,0.00,,,0.00,Wunderground v.1.13,2013-01-04 20:30:00,
2013-01-04 12:40:00,49.2,40.6,30.17,North,355,0.0,0.0,72,0.00,,,0.00,Wunderground v.1.13,2013-01-04 20:40:00,
2013-01-04 12:50:00,49.6,39.8,30.17,North,355,0.0,0.0,69,0.00,,,0.00,Wunderground v.1.13,2013-01-04 20:50:00,
2013-01-04 13:00:00,50.1,39.9,30.16,NW,306,0.0,0.0,68,0.00,,,0.00,Wunderground v.1.13,2013-01-04 21:00:00,
2013-01-04 13:10:00,50.5,39.2,30.16,NW,306,0.0,0.0,65,0.00,,,0.00,Wunderground v.1.13,2013-01-04 21:10:00,
2013-01-04 13:15:00,50.7,39.4,30.16,NW,306,0.0,0.0,65,0.00,,,0.00,Wunderground v.1.13,2013-01-04 21:15:00,
2013-01-04 13:20:00,50.9,39.1,30.16,NW,306,0.0,0.0,64,0.00,,,0.00,Wunderground v.1.13,2013-01-04 21:20:00,
2013-01-04 13:30:00,51.3,38.7,30.15,NW,306,0.0,0.0,62,0.00,,,0.00,Wunderground v.1.13,2013-01-04 21:30:00,
2013-01-04 13:40:00,51.7,38.7,30.14,NW,306,0.0,0.0,61,0.00,,,0.00,Wunderground v.1.13,2013-01-04 21:40:00,
2013-01-04 13:50:00,52.1,39.1,30.14,NW,306,0.0,0.0,61,0.00,,,0.00,Wunderground v.1.13,2013-01-04 21:50:00,
2013-01-04 14:00:00,52.3,38.8,30.14,NW,306,0.0,0.0,60,0.00,,,0.00,Wunderground v.1.13,2013-01-04 22:00:00,
2013-01-04 14:05:00,52.4,38.9,30.14,NW,306,0.0,0.0,60,0.00,,,0.00,Wunderground v.1.13,2013-01-04 22:05:00,
2013-01-04 14:15:00,52.7,39.2,30.14,NW,306,0.0,0.0,60,0.00,,,0.00,Wunderground v.1.13,2013-01-04 22:15:00,
2013-01-04 14:25:00,52.9,39.0,30.14,NW,306,0.0,0.0,59,0.00,,,0.00,Wunderground v.1.13,2013-01-04 22:25:00,
2013-01-04 14:30:00,53.0,39.0,30.14,NW,306,0.0,0.0,59,0.00,,,0.00,Wunderground v.1.13,2013-01-04 22:30:00,
2013-01-04 14:40:00,53.3,39.3,30.13,NW,306,0.0,0.0,59,0.00,,,0.00,Wunderground v.1.13,2013-01-04 22:40:00,
2013-01-04 14:50:00,53.6,39.6,30.13,NW,306,0.0,0.0,59,0.00,,,0.00,Wunderground v.1.13,2013-01-04 22:50:00,
2013-01-04 15:00:00,53.8,39.4,30.13,NW,306,0.0,0.0,58,0.00,,,0.00,Wunderground v.1.13,2013-01-04 23:00:00,
2013-01-04 15:10:00,53.9,39.9,30.13,NW,306,0.0,0.0,59,0.00,,,0.00,Wunderground v.1.13,2013-01-04 23:10:00,
2013-01-04 15:15:00,54.0,40.0,30.13,NW,306,0.0,0.0,59,0.00,,,0.00,Wunderground v.1.13,2013-01-04 23:15:00,
2013-01-04 15:25:00,54.0,40.4,30.13,NW,306,0.0,0.0,60,0.00,,,0.00,Wunderground v.1.13,2013-01-04 23:25:00,
2013-01-04 15:35:00,54.0,40.4,30.13,NW,306,0.0,0.0,60,0.00,,,0.00,Wunderground v.1.13,2013-01-04 23:35:00,
2013-01-04 15:40:00,54.0,40.8,30.13,NW,306,0.0,0.0,61,0.00,,,0.00,Wunderground v.1.13,2013-01-04 23:40:00,
2013-01-04 15:50:00,53.9,40.8,30.13,NW,306,0.0,0.0,61,0.00,,,0.00,Wunderground v.1.13,2013-01-04 23:50:00,
2013-01-04 16:00:00,53.8,41.1,30.13,NW,306,0.0,0.0,62,0.00,,,0.00,Wunderground v.1.13,2013-01-05 00:00:00,
2013-01-04 16:05:00,53.7,41.0,30.13,NW,306,0.0,0.0,62,0.00,,,0.00,Wunderground v.1.13,2013-01-05 00:05:00,
2013-01-04 16:15:00,53.5,40.8,30.13,NW,306,0.0,0.0,62,0.00,,,0.00,Wunderground v.1.13,2013-01-05 00:15:00,
2013-01-04 16:20:00,53.3,40.6,30.13,NW,306,0.0,0.0,62,0.00,,,0.00,Wunderground v.1.13,2013-01-05 00:20:00,
2013-01-04 16:25:00,53.2,40.1,30.13,NW,306,0.0,0.0,61,0.00,,,0.00,Wunderground v.1.13,2013-01-05 00:25:00,
2013-01-04 16:35:00,52.9,40.2,30.13,NW,306,0.0,0.0,62,0.00,,,0.00,Wunderground v.1.13,2013-01-05 00:35:00,
2013-01-04 16:40:00,52.7,39.6,30.13,NW,306,0.0,0.0,61,0.00,,,0.00,Wunderground v.1.13,2013-01-05 00:40:00,
2013-01-04 16:50:00,52.3,39.7,30.13,NW,306,0.0,0.0,62,0.00,,,0.00,Wunderground v.1.13,2013-01-05 00:50:00,
2013-01-04 17:00:00,51.9,39.3,30.13,NW,306,0.0,0.0,62,0.00,,,0.00,Wunderground v.1.13,2013-01-05 01:00:00,
2013-01-04 17:10:00,51.4,39.2,30.13,NW,306,0.0,0.0,63,0.00,,,0.00,Wunderground v.1.13,2013-01-05 01:10:00,
2013-01-04 17:15:00,51.2,39.0,30.13,NW,306,0.0,0.0,63,0.00,,,0.00,Wunderground v.1.13,2013-01-05 01:15:00,
2013-01-04 17:25:00,50.6,38.5,30.13,NW,306,0.0,0.0,63,0.00,,,0.00,Wunderground v.1.13,2013-01-05 01:25:00,
2013-01-04 17:30:00,50.4,38.7,30.13,NW,306,0.0,0.0,64,0.00,,,0.00,Wunderground v.1.13,2013-01-05 01:30:00,
2013-01-04 17:40:00,49.9,38.2,30.13,NW,306,0.0,0.0,64,0.00,,,0.00,Wunderground v.1.13,2013-01-05 01:40:00,
2013-01-04 17:50:00,49.4,38.1,30.13,NW,306,0.0,0.0,65,0.00,,,0.00,Wunderground v.1.13,2013-01-05 01:50:00,
2013-01-04 18:00:00,48.9,38.0,30.14,NW,306,0.0,0.0,66,0.00,,,0.00,Wunderground v.1.13,2013-01-05 02:00:00,
2013-01-04 18:05:00,48.6,37.7,30.14,NW,306,0.0,0.0,66,0.00,,,0.00,Wunderground v.1.13,2013-01-05 02:05:00,
2013-01-04 18:15:00,48.1,37.3,30.14,NW,306,0.0,0.0,66,0.00,,,0.00,Wunderground v.1.13,2013-01-05 02:15:00,
2013-01-04 18:20:00,47.9,37.1,30.14,NW,306,0.0,0.0,66,0.00,,,0.00,Wunderground v.1.13,2013-01-05 02:20:00,
2013-01-04 18:30:00,47.5,37.1,30.14,NW,306,0.0,0.0,67,0.00,,,0.00,Wunderground v.1.13,2013-01-05 02:30:00,
2013-01-04 18:40:00,47.0,37.0,30.15,NW,306,0.0,0.0,68,0.00,,,0.00,Wunderground v.1.13,2013-01-05 02:40:00,
2013-01-04 18:50:00,46.7,37.1,30.15,NW,306,0.0,0.0,69,0.00,,,0.00,Wunderground v.1.13,2013-01-05 02:50:00,
2013-01-04 18:55:00,46.5,36.9,30.15,NW,306,0.0,0.0,69,0.00,,,0.00,Wunderground v.1.13,2013-01-05 02:55:00,
2013-01-04 19:05:00,46.2,37.0,30.15,NW,306,0.0,0.0,70,0.00,,,0.00,Wunderground v.1.13,2013-01-05 03:05:00,
2013-01-04 19:10:00,46.0,36.8,30.15,NW,306,0.0,0.0,70,0.00,,,0.00,Wunderground v.1.13,2013-01-05 03:10:00,
2013-01-04 19:20:00,45.7,36.8,30.15,NW,306,0.0,0.0,71,0.00,,,0.00,Wunderground v.1.13,2013-01-05 03:20:00,
2013-01-04 19:30:00,45.4,36.9,30.15,NW,306,0.0,0.0,72,0.00,,,0.00,Wunderground v.1.13,2013-01-05 03:30:00,
2013-01-04 19:40:00,45.0,36.5,30.15,NW,306,0.0,0.0,72,0.00,,,0.00,Wunderground v.1.13,2013-01-05 03:40:00,
2013-01-04 19:50:00,44.6,35.8,30.15,NW,306,0.0,0.0,71,0.00,,,0.00,Wunderground v.1.13,2013-01-05 03:50:00,
2013-01-04 19:55:00,44.5,35.7,30.15,NW,306,0.0,0.0,71,0.00,,,0.00,Wunderground v.1.13,2013-01-05 03:55:00,
2013-01-04 20:05:00,44.2,35.7,30.16,NW,306,0.0,0.0,72,0.00,,,0.00,Wunderground v.1.13,2013-01-05 04:05:00,
2013-01-04 20:10:00,44.0,35.6,30.16,NW,306,0.0,0.0,72,0.00,,,0.00,Wunderground v.1.13,2013-01-05 04:10:00,
2013-01-04 20:20:00,43.8,35.7,30.16,NW,306,0.0,0.0,73,0.00,,,0.00,Wunderground v.1.13,2013-01-05 04:20:00,
2013-01-04 20:30:00,43.6,35.2,30.16,NW,306,0.0,0.0,72,0.00,,,0.00,Wunderground v.1.13,2013-01-05 04:30:00,
2013-01-04 20:35:00,43.4,35.0,30.16,NW,306,0.0,0.0,72,0.00,,,0.00,Wunderground v.1.13,2013-01-05 04:35:00,
2013-01-04 20:45:00,43.2,35.1,30.17,NW,306,0.0,0.0,73,0.00,,,0.00,Wunderground v.1.13,2013-01-05 04:45:00,
2013-01-04 20:50:00,43.1,35.0,30.17,NW,306,0.0,0.0,73,0.00,,,0.00,Wunderground v.1.13,2013-01-05 04:50:00,
2013-01-04 21:00:00,42.9,34.8,30.17,NW,306,0.0,0.0,73,0.00,,,0.00,Wunderground v.1.13,2013-01-05 05:00:00,
2013-01-04 21:05:00,42.9,35.5,30.17,NW,306,0.0,0.0,75,0.00,,,0.00,Wunderground v.1.13,2013-01-05 05:05:00,
2013-01-04 21:10:00,42.8,35.4,30.17,NW,306,0.0,0.0,75,0.00,,,0.00,Wunderground v.1.13,2013-01-05 05:10:00,
2013-01-04 21:20:00,42.5,35.1,30.17,NW,306,0.0,0.0,75,0.00,,,0.00,Wunderground v.1.13,2013-01-05 05:20:00,
2013-01-04 21:30:00,42.3,34.9,30.17,NW,306,0.0,0.0,75,0.00,,,0.00,Wunderground v.1.13,2013-01-05 05:30:00,
2013-01-04 21:35:00,42.2,34.8,30.17,NW,306,0.0,0.0,75,0.00,,,0.00,Wunderground v.1.13,2013-01-05 05:35:00,
2013-01-04 21:40:00,42.0,34.6,30.17,NW,306,0.0,0.0,75,0.00,,,0.00,Wunderground v.1.13,2013-01-05 05:40:00,
2013-01-04 21:50:00,41.9,34.9,30.17,NW,306,0.0,0.0,76,0.00,,,0.00,Wunderground v.1.13,2013-01-05 05:50:00,
2013-01-04 22:00:00,41.7,34.7,30.17,NW,306,0.0,0.0,76,0.00,,,0.00,Wunderground v.1.13,2013-01-05 06:00:00,
2013-01-04 22:10:00,41.5,34.5,30.17,NW,306,0.0,0.0,76,0.00,,,0.00,Wunderground v.1.13,2013-01-05 06:10:00,
2013-01-04 22:15:00,41.4,34.4,30.17,NW,306,0.0,0.0,76,0.00,,,0.00,Wunderground v.1.13,2013-01-05 06:15:00,
2013-01-04 22:20:00,41.3,34.3,30.18,NW,306,0.0,0.0,76,0.00,,,0.00,Wunderground v.1.13,2013-01-05 06:20:00,
2013-01-04 22:30:00,41.1,34.1,30.18,NW,306,0.0,0.0,76,0.00,,,0.00,Wunderground v.1.13,2013-01-05 06:30:00,
2013-01-04 22:40:00,41.0,34.0,30.18,NW,306,0.0,0.0,76,0.00,,,0.00,Wunderground v.1.13,2013-01-05 06:40:00,
2013-01-04 22:50:00,40.9,33.9,30.18,NW,306,0.0,0.0,76,0.00,,,0.00,Wunderground v.1.13,2013-01-05 06:50:00,
2013-01-04 22:55:00,40.8,33.8,30.18,NW,306,0.0,0.0,76,0.00,,,0.00,Wunderground v.1.13,2013-01-05 06:55:00,
2013-01-04 23:05:00,40.7,34.0,30.18,NW,306,0.0,0.0,77,0.00,,,0.00,Wunderground v.1.13,2013-01-05 07:05:00,
2013-01-04 23:15:00,40.5,34.2,30.18,NW,306,0.0,0.0,78,0.00,,,0.00,Wunderground v.1.13,2013-01-05 07:15:00,
2013-01-04 23:25:00,40.4,33.8,30.18,NW,306,0.0,0.0,77,0.00,,,0.00,Wunderground v.1.13,2013-01-05 07:25:00,
2013-01-04 23:30:00,40.2,33.6,30.17,NW,306,0.0,0.0,77,0.00,,,0.00,Wunderground v.1.13,2013-01-05 07:30:00,
2013-01-04 23:40:00,40.0,33.4,30.18,NW,306,0.0,0.0,77,0.00,,,0.00,Wunderground v.1.13,2013-01-05 07:40:00,
2013-01-04 23:50:00,39.8,33.2,30.18,NW,306,0.0,0.0,77,0.00,,,0.00,Wunderground v.1.13,2013-01-05 07:50:00,